Eagle, AK

4:17 AM AKDT on July 29, 2017 (GMT -0800)
Eagle

Weather History for PAEG - September, 2013

Change the Weather History Date:

Wednesday, September 4, 2013

  Actual Average (PABN) Record (PABN)
Temperature  
Mean Temperature 50 °F -  
Max Temperature 61 °F 49 °F 62 °F (1997)
Min Temperature 39 °F 36 °F 24 °F (2014)
Degree Days  
Heating Degree Days 14    
Moisture  
Dew Point 47 °F    
Average Humidity 78    
Maximum Humidity 93    
Minimum Humidity 62    
Precipitation  
Precipitation 0.07 in - - ()
Sea Level Pressure  
Sea Level Pressure 29.48 in    
Wind  
Wind Speed 5 mph (ESE)    
Max Wind Speed 9 mph    
Max Gust Speed 17 mph    
Visibility 10 miles    
Events Rain    
Averages and records for this station are not official NWS values.
T = Trace of Precipitation, MM = Missing Value Source: NWS Daily Summary

Daily Weather History Graph

Daily Weather History Graph

Search for Another Location

Airport or City:

Trip Planner

Search our weather history database for the weather conditions in past years. The results will help you decide how hot, cold, wet, or windy it might be!

Date:

Astronomy

Sep. 04, 2013 Rise Set
Actual Time 6:15 AM AKDT 8:29 PM AKDT
Civil Twilight 5:21 AM AKDT 9:22 PM AKDT
Nautical Twilight 4:08 AM AKDT 10:34 PM AKDT
Astronomical Twilight 1:51 AM AKDT 12:36 AM AKDT
Moon 5:40 AM AKDT (9/4) 7:36 PM AKDT (9/4)
Length of Visible Light 16h 01m
Length of Day
14h 14m
Waning Crescent, 0% of the Moon is Illuminated
Sep 4
Waning Crescent
Sep 5
New
Sep 12
First Quarter
Sep 19
Full
Sep 26
Last Quarter

Hourly Weather History & Observations

Time (AKDT) Temp. Windchill Dew Point Humidity Pressure Visibility Wind Dir Wind Speed Gust Speed Precip Events Conditions
12:53 AM 55.9 °F - 48.9 °F 77% 29.37 in 10.0 mi NE 9.2 mph - N/A   Clear
1:53 AM 59.0 °F - 48.9 °F 69% 29.40 in 10.0 mi SE 3.5 mph - N/A   Clear
2:53 AM 57.0 °F - 48.0 °F 72% 29.39 in 10.0 mi Variable 5.8 mph - N/A   Clear
3:53 AM 55.0 °F - 48.0 °F 77% 29.41 in 10.0 mi Calm Calm - N/A   Scattered Clouds
4:53 AM 52.0 °F - 46.9 °F 83% 29.42 in 10.0 mi Calm Calm - N/A   Overcast
5:53 AM 57.0 °F - 48.0 °F 72% 29.42 in 10.0 mi ESE 8.1 mph - 0.00 in Rain Light Rain
6:53 AM 55.0 °F - 48.9 °F 80% 29.44 in 10.0 mi SE 3.5 mph - 0.01 in Rain Light Rain
7:53 AM 54.0 °F - 48.9 °F 83% 29.44 in 10.0 mi East 6.9 mph - 0.01 in Rain Light Rain
8:53 AM 55.9 °F - 48.0 °F 75% 29.44 in 10.0 mi SE 8.1 mph - 0.00 in Rain Light Rain
9:53 AM 54.0 °F - 48.9 °F 83% 29.45 in 10.0 mi Variable 3.5 mph - 0.01 in   Overcast
10:53 AM 57.0 °F - 48.9 °F 74% 29.45 in 10.0 mi Variable 4.6 mph - 0.00 in   Partly Cloudy
11:53 AM 55.9 °F - 48.0 °F 75% 29.46 in 10.0 mi SE 5.8 mph 17.3 mph N/A   Overcast
12:53 PM 52.0 °F - 48.0 °F 86% 29.49 in 5.0 mi SE 3.5 mph - 0.03 in Rain Light Rain
1:53 PM 55.9 °F - 50.0 °F 80% 29.48 in 10.0 mi Variable 3.5 mph - 0.01 in   Clear
2:53 PM 59.0 °F - 50.0 °F 72% 29.49 in 10.0 mi Variable 3.5 mph - N/A   Mostly Cloudy
3:53 PM 59.0 °F - 48.9 °F 69% 29.49 in 10.0 mi SE 5.8 mph - N/A   Mostly Cloudy
4:53 PM 59.0 °F - 48.0 °F 67% 29.48 in 10.0 mi Variable 5.8 mph - N/A   Clear
5:53 PM 60.1 °F - 46.9 °F 62% 29.48 in 10.0 mi SE 9.2 mph 17.3 mph N/A   Mostly Cloudy
6:53 PM 57.0 °F - 46.9 °F 69% 29.51 in 10.0 mi ENE 4.6 mph - 0.00 in Rain Light Rain
7:53 PM 53.1 °F - 46.9 °F 80% 29.52 in 10.0 mi Calm Calm - 0.00 in   Scattered Clouds
8:53 PM 46.9 °F - 44.1 °F 90% 29.57 in 10.0 mi Calm Calm - N/A   Clear
9:53 PM 43.0 °F - 39.9 °F 89% 29.61 in 10.0 mi Calm Calm - N/A   Clear
10:53 PM 41.0 °F 39.0 °F 39.0 °F 93% 29.64 in 10.0 mi South 3.5 mph - N/A   Mostly Cloudy
11:53 PM 39.9 °F 37.8 °F 37.9 °F 93% 29.67 in 10.0 mi SSE 3.5 mph - N/A   Partly Cloudy